Location: Keppel Henge
(44.7900°N, 80.9447°W)
Time: 21:39:45
(UTC-04:00)

N. Korean satellite - Pass Details

Date: 10 October 2017
Orbit: 459 x 517 km, 97.2° (Epoch: 19 October)

Event Time Altitude Azimuth Distance (km) Brightness Sun altitude
Rises 19:23:20 0° 167° (SSE) 2,564 10.1 -7.2°
Reaches altitude 10° 19:25:25 10° 168° (SSE) 1,677 9.2 -7.5°
Maximum altitude 19:29:02 86° 258° (WSW) 491 6.6 -8.2°
Drops below altitude 10° 19:32:36 10° 347° (NNW) 1,659 9.4 -8.8°
Sets 19:34:39 0° 348° (NNW) 2,533 10.4 -9.2°
